When you browse on this site, cookies collect data to enhance your experience and personalize the content and advertising you see.
Visit our Privacy Policy to learn more. By continuing to use the site, you agree to this use of cookies and data.
  • In Österreich
  • Länderverzeichnis
  • Für 7 Tage
  • Wassertemperatur
  • Wetterkarte
  • News
  • Widgets
  • user-avatar
    Anmelden

    Stündliche Wetter Cordoba

    Heute, 28 Januar, Dienstag

    Zeit Temperatur Niederschläge Wind Luftdruck Luftfeuchtigkeit
    00:00 +23°C° 0 mm 2 m/S 724 mmHg 32%
    01:00 +23°C° 0 mm 2 m/S 723 mmHg 32%
    02:00 +23°C° 0 mm 2 m/S 723 mmHg 32%
    03:00 +21°C° 0 mm 2 m/S 723 mmHg 34%
    04:00 +21°C° 0 mm 2 m/S 722 mmHg 35%
    05:00 +20°C° 0 mm 2 m/S 722 mmHg 36%
    06:00 +22°C° 0 mm 3 m/S 722 mmHg 34%
    07:00 +25°C° 0 mm 3 m/S 722 mmHg 31%
    08:00 +27°C° 0 mm 4 m/S 722 mmHg 29%
    09:00 +29°C° 0 mm 5 m/S 722 mmHg 27%
    10:00 +32°C° 0 mm 5 m/S 722 mmHg 25%
    11:00 +34°C° 0 mm 6 m/S 722 mmHg 23%
    12:00 +35°C° 0 mm 6 m/S 721 mmHg 23%
    13:00 +36°C° 0 mm 6 m/S 720 mmHg 22%
    14:00 +38°C° 0 mm 6 m/S 720 mmHg 21%
    15:00 +38°C° 0 mm 6 m/S 719 mmHg 23%
    16:00 +38°C° 0 mm 6 m/S 718 mmHg 24%
    17:00 +36°C° 0 mm 6 m/S 718 mmHg 25%
    18:00 +34°C° 0 mm 5 m/S 718 mmHg 30%
    19:00 +32°C° 0 mm 5 m/S 717 mmHg 34%
    20:00 +29°C° 0 mm 4 m/S 717 mmHg 39%
    21:00 +28°C° 0 mm 4 m/S 717 mmHg 42%
    22:00 +27°C° 0 mm 3 m/S 718 mmHg 45%
    23:00 +26°C° 0 mm 3 m/S 718 mmHg 49%

    Morgen, 29 Januar, Mittwoch

    Zeit Temperatur Niederschläge Wind Luftdruck Luftfeuchtigkeit
    00:00 +26°C° 0 mm 3 m/S 718 mmHg 50%
    01:00 +26°C° 0 mm 2 m/S 718 mmHg 52%
    02:00 +25°C° 0 mm 2 m/S 718 mmHg 54%
    03:00 +24°C° 0.3 mm 3 m/S 718 mmHg 64%
    04:00 +21°C° 0.3 mm 4 m/S 719 mmHg 74%
    05:00 +19°C° 0.3 mm 5 m/S 719 mmHg 84%
    06:00 +20°C° 0.1 mm 5 m/S 720 mmHg 80%
    07:00 +21°C° 0.1 mm 6 m/S 720 mmHg 77%
    08:00 +22°C° 0.1 mm 6 m/S 721 mmHg 73%
    09:00 +24°C° 0 mm 6 m/S 721 mmHg 65%
    10:00 +27°C° 0 mm 6 m/S 722 mmHg 56%
    11:00 +29°C° 0 mm 6 m/S 722 mmHg 48%
    12:00 +28°C° 0.4 mm 6 m/S 722 mmHg 53%
    13:00 +27°C° 0.4 mm 5 m/S 722 mmHg 58%
    14:00 +26°C° 0.4 mm 5 m/S 722 mmHg 63%
    15:00 +25°C° 1.4 mm 4 m/S 722 mmHg 68%
    16:00 +24°C° 1.4 mm 3 m/S 721 mmHg 72%
    17:00 +24°C° 1.4 mm 2 m/S 721 mmHg 77%
    18:00 +23°C° 0 mm 2 m/S 721 mmHg 75%
    19:00 +23°C° 0 mm 2 m/S 722 mmHg 73%
    20:00 +23°C° 0 mm 2 m/S 722 mmHg 70%
    21:00 +21°C° 0 mm 2 m/S 722 mmHg 68%
    22:00 +21°C° 0 mm 2 m/S 723 mmHg 66%
    23:00 +20°C° 0 mm 2 m/S 723 mmHg 64%

    übermorgen, 30 Januar, Donnerstag

    Zeit Temperatur Niederschläge Wind Luftdruck Luftfeuchtigkeit
    00:00 +21°C° 0 mm 1 m/S 723 mmHg 64%
    01:00 +21°C° 0 mm 1 m/S 723 mmHg 63%
    02:00 +20°C° 0 mm 1 m/S 723 mmHg 63%
    03:00 +20°C° 0 mm 1 m/S 723 mmHg 62%
    04:00 +20°C° 0 mm 1 m/S 723 mmHg 62%
    05:00 +20°C° 0 mm 1 m/S 723 mmHg 61%
    06:00 +22°C° 0 mm 1 m/S 724 mmHg 55%
    07:00 +24°C° 0 mm 1 m/S 724 mmHg 50%
    08:00 +25°C° 0 mm 1 m/S 725 mmHg 44%
    09:00 +27°C° 0 mm 1 m/S 725 mmHg 39%
    10:00 +29°C° 0 mm 1 m/S 725 mmHg 34%
    11:00 +31°C° 0 mm 2 m/S 725 mmHg 29%
    12:00 +34°C° 0 mm 2 m/S 724 mmHg 25%
    13:00 +35°C° 0 mm 2 m/S 724 mmHg 22%
    14:00 +36°C° 0 mm 2 m/S 723 mmHg 18%
    15:00 +36°C° 0 mm 2 m/S 722 mmHg 18%
    16:00 +36°C° 0 mm 2 m/S 722 mmHg 18%
    17:00 +36°C° 0 mm 2 m/S 721 mmHg 17%
    18:00 +32°C° 0 mm 2 m/S 721 mmHg 22%
    19:00 +30°C° 0 mm 2 m/S 721 mmHg 26%
    20:00 +27°C° 0 mm 2 m/S 721 mmHg 31%
    21:00 +26°C° 0 mm 2 m/S 722 mmHg 33%
    22:00 +25°C° 0 mm 2 m/S 722 mmHg 35%
    23:00 +24°C° 0 mm 2 m/S 722 mmHg 38%

    31 Januar, Freitag

    Zeit Temperatur Niederschläge Wind Luftdruck Luftfeuchtigkeit
    00:00 +24°C° 0 mm 2 m/S 722 mmHg 39%
    01:00 +23°C° 0 mm 2 m/S 722 mmHg 40%
    02:00 +23°C° 0 mm 1 m/S 722 mmHg 42%
    03:00 +23°C° 0 mm 2 m/S 722 mmHg 42%
    04:00 +21°C° 0 mm 2 m/S 722 mmHg 43%
    05:00 +21°C° 0 mm 2 m/S 722 mmHg 43%
    06:00 +25°C° 0 mm 2 m/S 723 mmHg 40%
    07:00 +27°C° 0 mm 2 m/S 723 mmHg 36%
    08:00 +29°C° 0 mm 2 m/S 724 mmHg 33%
    09:00 +31°C° 0 mm 3 m/S 724 mmHg 29%
    10:00 +34°C° 0 mm 3 m/S 723 mmHg 24%
    11:00 +36°C° 0 mm 3 m/S 723 mmHg 20%
    12:00 +37°C° 0 mm 3 m/S 723 mmHg 19%
    13:00 +38°C° 0 mm 3 m/S 722 mmHg 17%
    14:00 +38°C° 0 mm 4 m/S 722 mmHg 15%
    15:00 +38°C° 0 mm 4 m/S 721 mmHg 16%
    16:00 +38°C° 0 mm 4 m/S 721 mmHg 16%
    17:00 +38°C° 0 mm 4 m/S 720 mmHg 16%
    18:00 +35°C° 0 mm 4 m/S 720 mmHg 21%
    19:00 +33°C° 0 mm 4 m/S 720 mmHg 25%
    20:00 +29°C° 0 mm 5 m/S 721 mmHg 29%
    21:00 +28°C° 0 mm 4 m/S 721 mmHg 32%
    22:00 +27°C° 0 mm 3 m/S 721 mmHg 35%
    23:00 +26°C° 0 mm 3 m/S 722 mmHg 38%

    1 Februar, Samstag

    Zeit Temperatur Niederschläge Wind Luftdruck Luftfeuchtigkeit
    00:00 +25°C° 0 mm 2 m/S 721 mmHg 39%
    01:00 +25°C° 0 mm 2 m/S 721 mmHg 40%
    02:00 +25°C° 0 mm 2 m/S 721 mmHg 41%
    03:00 +24°C° 0 mm 2 m/S 721 mmHg 41%
    04:00 +24°C° 0 mm 2 m/S 721 mmHg 41%
    05:00 +24°C° 0 mm 2 m/S 721 mmHg 42%
    06:00 +26°C° 0 mm 2 m/S 721 mmHg 38%
    07:00 +28°C° 0 mm 3 m/S 721 mmHg 35%
    08:00 +31°C° 0 mm 3 m/S 722 mmHg 31%
    09:00 +34°C° 0 mm 3 m/S 722 mmHg 28%
    10:00 +35°C° 0 mm 3 m/S 721 mmHg 24%
    11:00 +37°C° 0 mm 4 m/S 721 mmHg 21%
    12:00 +38°C° 0 mm 3 m/S 721 mmHg 20%
    13:00 +39°C° 0 mm 3 m/S 720 mmHg 18%
    14:00 +40°C° 0 mm 3 m/S 719 mmHg 17%
    15:00 +40°C° 0 mm 3 m/S 719 mmHg 18%
    16:00 +41°C° 0 mm 4 m/S 718 mmHg 19%
    17:00 +40°C° 0 mm 4 m/S 718 mmHg 20%
    18:00 +37°C° 0 mm 4 m/S 718 mmHg 24%
    19:00 +35°C° 0 mm 4 m/S 718 mmHg 28%
    20:00 +32°C° 0 mm 5 m/S 718 mmHg 32%
    21:00 +30°C° 0 mm 4 m/S 718 mmHg 35%
    22:00 +29°C° 0 mm 3 m/S 719 mmHg 38%
    23:00 +27°C° 0 mm 3 m/S 719 mmHg 41%

    2 Februar, Sonntag

    Zeit Temperatur Niederschläge Wind Luftdruck Luftfeuchtigkeit
    00:00 +27°C° 0 mm 2 m/S 719 mmHg 42%
    01:00 +27°C° 0 mm 2 m/S 719 mmHg 44%
    02:00 +27°C° 0 mm 2 m/S 719 mmHg 45%
    03:00 +26°C° 0.2 mm 2 m/S 719 mmHg 50%
    04:00 +25°C° 0.2 mm 2 m/S 719 mmHg 54%
    05:00 +25°C° 0.2 mm 2 m/S 719 mmHg 59%
    06:00 +27°C° 0.1 mm 2 m/S 719 mmHg 56%
    07:00 +29°C° 0.1 mm 2 m/S 720 mmHg 53%
    08:00 +30°C° 0.1 mm 2 m/S 720 mmHg 50%
    09:00 +34°C° 0 mm 3 m/S 720 mmHg 42%
    10:00 +37°C° 0 mm 3 m/S 721 mmHg 34%
    11:00 +40°C° 0 mm 3 m/S 721 mmHg 25%
    12:00 +41°C° 0 mm 4 m/S 720 mmHg 24%
    13:00 +41°C° 0 mm 4 m/S 719 mmHg 23%
    14:00 +42°C° 0 mm 4 m/S 719 mmHg 22%
    15:00 +41°C° 0.1 mm 4 m/S 719 mmHg 23%
    16:00 +41°C° 0.1 mm 4 m/S 718 mmHg 24%
    17:00 +40°C° 0.1 mm 4 m/S 718 mmHg 26%
    18:00 +37°C° 0.1 mm 3 m/S 718 mmHg 31%
    19:00 +35°C° 0.1 mm 3 m/S 718 mmHg 36%
    20:00 +31°C° 0.1 mm 2 m/S 718 mmHg 41%
    21:00 +31°C° 0 mm 2 m/S 718 mmHg 43%
    22:00 +30°C° 0 mm 3 m/S 719 mmHg 45%
    23:00 +29°C° 0 mm 3 m/S 719 mmHg 47%
    Mehr zeigen